Weather History for Texarkana, AR

Change the Weather History Date:

Friday, March 21, 2014

  Actual Average Record
Temperature  
Mean Temperature 62 °F 57 °F  
Max Temperature 79 °F 69 °F 92 °F (1921)
Min Temperature 45 °F 46 °F 25 °F (1933)
Degree Days  
Heating Degree Days 3 8  
Month to date heating degree days 303 228  
Since 1 July heating degree days 2771 2422  
Cooling Degree Days 0 1  
Month to date cooling degree days 2 9  
Year to date cooling degree days 2 13  
Growing Degree Days 13 (Base 50)    
Moisture  
Dew Point 41 °F    
Average Humidity 45    
Maximum Humidity 66    
Minimum Humidity 23    
Precipitation  
Precipitation 0.00 in 0.13 in 1.82 in (1948)
Month to date precipitation 2.43 2.87  
Year to date precipitation 6.35 10.26  
Snow  
Snow 0.00 in - - ()
Month to date snowfall T  
Since 1 July snowfall 1.7  
Snow Depth 0.00 in    
Sea Level Pressure  
Sea Level Pressure 29.94 in    
Wind  
Wind Speed 9 mph (South)    
Max Wind Speed 18 mph    
Max Gust Speed 25 mph    
Visibility 10 miles    
Events      
T = Trace of Precipitation, MM = Missing Value Source: NWS Daily Summary

Daily Weather History Graph

Daily Weather History Graph

Search for Another Location

Airport:

Trip Planner

Search our weather history database for the weather conditions in past years. The results will help you decide how hot, cold, wet, or windy it might be!

Date:

Astronomy

Mar. 21, 2014 Rise Set
Actual Time 7:18 AM CDT 7:28 PM CDT
Civil Twilight 6:53 AM CDT 7:53 PM CDT
Nautical Twilight 6:24 AM CDT 8:22 PM CDT
Astronomical Twilight 5:55 AM CDT 8:51 PM CDT
Moon No Moon Rise 10:23 AM CDT (3/21)
Length of Visible Light 12h 59m
Length of Day
12h 10m
Waning Gibbous, 75% of the Moon is Illuminated
Mar 21
Waning Gibbous
Mar 23
Last Quarter
Mar 30
New
Apr 7
First Quarter
Apr 15
Full

Hourly Weather History & Observations

Time (CDT) Temp. Dew Point Humidity Pressure Visibility Wind Dir Wind Speed Gust Speed Precip Events Conditions
12:53 AM 53.1 °F 30.9 °F 43% 30.05 in 10.0 mi SSW 3.5 mph - N/A   Clear
1:53 AM 54.0 °F 32.0 °F 43% 30.04 in 10.0 mi South 5.8 mph - N/A   Clear
2:53 AM 54.0 °F 34.0 °F 47% 30.02 in 10.0 mi SSW 5.8 mph - N/A   Clear
3:53 AM 52.0 °F 35.1 °F 53% 30.01 in 10.0 mi South 4.6 mph - N/A   Clear
4:53 AM 52.0 °F 36.0 °F 54% 29.99 in 10.0 mi South 6.9 mph - N/A   Clear
5:53 AM 52.0 °F 37.0 °F 57% 29.98 in 10.0 mi South 6.9 mph - N/A   Clear
6:53 AM 52.0 °F 37.0 °F 57% 29.98 in 10.0 mi South 5.8 mph - N/A   Clear
7:53 AM 48.0 °F 37.0 °F 66% 29.99 in 10.0 mi Calm Calm - N/A   Clear
8:53 AM 53.1 °F 39.0 °F 59% 29.99 in 10.0 mi South 6.9 mph - N/A   Clear
9:53 AM 57.9 °F 42.1 °F 56% 30.00 in 10.0 mi SSW 10.4 mph - N/A   Clear
10:53 AM 64.0 °F 45.0 °F 50% 29.99 in 10.0 mi South 11.5 mph - N/A   Clear
11:53 AM 70.0 °F 46.0 °F 42% 29.98 in 10.0 mi SSW 16.1 mph 24.2 mph N/A   Clear
12:53 PM 73.0 °F 46.0 °F 38% 29.95 in 10.0 mi SW 13.8 mph - N/A   Clear
1:53 PM 73.9 °F 42.1 °F 32% 29.91 in 10.0 mi SSW 12.7 mph 21.9 mph N/A   Clear
2:53 PM 75.9 °F 39.0 °F 26% 29.88 in 10.0 mi SSW 12.7 mph - N/A   Clear
3:53 PM 78.1 °F 37.9 °F 24% 29.86 in 10.0 mi SSW 15.0 mph 19.6 mph N/A   Clear
4:53 PM 77.0 °F 39.0 °F 25% 29.84 in 10.0 mi South 9.2 mph 17.3 mph N/A   Clear
5:53 PM 75.9 °F 42.1 °F 30% 29.84 in 10.0 mi South 6.9 mph - N/A   Clear
6:53 PM 73.0 °F 45.0 °F 37% 29.86 in 10.0 mi South 6.9 mph - N/A   Clear
7:53 PM 70.0 °F 46.0 °F 42% 29.86 in 10.0 mi SSE 6.9 mph - N/A   Mostly Cloudy
8:53 PM 70.0 °F 46.9 °F 44% 29.88 in 10.0 mi South 6.9 mph - N/A   Mostly Cloudy
9:53 PM 69.1 °F 50.0 °F 51% 29.90 in 10.0 mi South 6.9 mph - N/A   Mostly Cloudy
10:53 PM 68.0 °F 52.0 °F 56% 29.91 in 10.0 mi South 9.2 mph - N/A   Mostly Cloudy
11:53 PM 66.9 °F 53.1 °F 61% 29.91 in 10.0 mi South 12.7 mph - N/A   Scattered Clouds